Pagina principale
METAR-TAF:

METAR-TAF

Aeroporti :

Maragheh, Iran

latitudine: 37-20-55N, longitudine: 046-07-35E, altezza: 1340 m

Osservazione

Il bollettino è stato emesso 1 ora e 23 minuti fa, alle 18:00 UTC
Vento 4 kt da ovest/nord-ovest
Temperature 4°C
Umidità 100%
Pressione 1014 hPa
Visibilità: 0900 m
Nuvoloso ad un'altezza di 1700 ft
Cielo coperto ad un'altezza di 9000 ft
nebbia

METAR: OITM 241800Z 30004KT 0900 FG BKN017 OVC090 04/04 Q1014

Ora: 22:53 (19:23 UTC)


TAF: mancante

Osservazioni e previsioni meteorologiche di più di 4000 aeroporti (messaggi METAR e TAF).

Le stazioni disponibili sono rappresentate dai dischi gialli e rossi sulla carta.

Puntare il mouse per vedere il nome della stazione.

Clicca sopra per visualizzare le osservazioni e previsioni meteorologiche.

Per cambiare la mappa : fare clic sui pulsanti verdi con una croce nera per ingrandire, il pulsante verde con un trattino per diminuire, o sulla freccia verde per le mappe adiacenti.


METAR-TAF: